Simultaneous Nadir Overpasses (SNOs) Predictions

Prediction of SNOs between AURA and NPP Satellite Orbit:

Table of predicted SNOs for the next 14.0 days since TLE Epoch: 10/14/2016
Index Date (AURA) Time (AURA) Lat,Lon (AURA) SZA (AURA ) Date (NPP) Time (NPP) Lat,Lon (NPP) SZA (NPP ) Distance(km) Time Diff (sec)
1 10/15/2016 10:35:10 79.31, -83.36 100.65 10/15/2016 10:34:36 79.30, -83.49 100.70 2.91 34
2 10/15/2016 11:24:30 -79.59, 86.14 79.72 10/15/2016 11:25:13 -79.58, 86.04 79.73 2.03 43
3 10/18/2016 02:51:38 79.41, 33.15 101.46 10/18/2016 02:51:29 79.40, 33.01 101.49 3.00 9
4 10/18/2016 03:40:58 -79.68,-157.30 78.91 10/18/2016 03:42:06 -79.67,-157.40 78.95 2.00 68
5 10/20/2016 18:18:46 -79.27, -19.54 77.45 10/20/2016 18:17:44 -79.27, -19.51 77.41 0.86 62
6 10/20/2016 19:08:05 79.53, 149.84 102.22 10/20/2016 19:08:21 79.52, 149.78 102.22 1.35 16
7 10/23/2016 10:35:13 -79.34, 96.80 76.64 10/23/2016 10:34:37 -79.33, 96.71 76.59 2.11 36
8 10/23/2016 11:24:30 79.67, -93.26 102.93 10/23/2016 11:25:11 79.68, -93.16 102.88 2.06 41
9 10/26/2016 02:51:38 -79.51,-146.15 75.98 10/26/2016 02:51:27 -79.52,-146.01 76.00 3.06 11
10 10/26/2016 03:40:58 79.72, 23.01 103.75 10/26/2016 03:42:05 79.73, 23.05 103.69 0.80 67
11 10/28/2016 18:18:45 79.31, 160.72 105.16 10/28/2016 18:17:43 79.32, 160.82 105.19 2.10 62




NCC Satellite Simultaneous Nadir Overpasses (SNOs) Prediction Service
